Latest Coastal Weather Observations for Lombadina

IDW60701

Issued at 2:42 pm WST Thursday 28 July 2016 (issued every 10 minutes, with the page automatically refreshed every 10 minutes)

About coastal observations | Map of coastal stations | Coastal observations for WA | Marine services | Other Formats
Station Details ID: 503016 Name: LOMBADINA AIRSTRIP Lat: -16.52 Lon: 122.92 Height: 42.0 m
Data from the previous 72 hours. | See also: Recent months for locations in Western Australia
Date/Time
WST
Temp
°C
Wind Pressure Rain since
9am
mm
Weather Cloud Vis
km
Sea
Height
m
Swell
Dir  Spd
kts
Gust
kts
hPa Trend Height
m
Period
s
Dir
28/02:30pm 28.7 ESE 5 9 1014.1 - 0.0 - - 10 - - - -
28/02:00pm 28.2 ESE 6 10 1014.3 - 0.0 - - 10 - - - -
28/01:30pm 28.7 ESE 6 10 1014.6 - 0.0 - - 10 - - - -
28/01:00pm 28.3 E 6 11 1015.1 - 0.0 - - 10 - - - -
28/12:30pm 27.8 E 7 13 1015.6 - 0.0 - - 10 - - - -
28/12:00pm 27.5 ESE 7 14 1016.1 - 0.0 - - 10 - - - -
28/11:30am 27.0 ESE 8 14 1016.6 - 0.0 - - 10 - - - -
28/11:00am 26.3 ESE 8 16 1017.0 - 0.0 - - 10 - - - -
28/10:30am 26.0 SE 10 19 1017.3 - 0.0 - - 10 - - - -
28/10:00am 25.9 ESE 9 18 1017.7 - 0.0 - - 10 - - - -
28/09:30am 26.0 SE 10 19 1018.0 - 0.0 - - 10 - - - -
28/09:00am 25.9 SE 9 17 1018.0 - 0.0 - - 10 - - - -
28/08:30am 25.6 SE 10 18 1018.0 - 0.0 - - 10 - - - -
28/08:00am 25.1 SE 8 17 1017.7 - 0.0 - - 10 - - - -
28/07:30am 24.6 ESE 7 14 1017.5 - 0.0 - - 10 - - - -
28/07:00am 24.2 ESE 7 13 1017.2 - 0.0 - - 10 - - - -
28/06:30am 23.6 ESE 7 14 1016.8 - 0.0 - - 10 - - - -
28/06:00am 23.5 ESE 7 12 1016.5 - 0.0 - - 10 - - - -
28/05:30am 23.6 ESE 7 13 1016.1 - 0.0 - - 10 - - - -
28/05:00am 23.9 ESE 7 11 1015.8 - 0.0 - - 10 - - - -
28/04:30am 24.0 ESE 7 12 1015.7 - 0.0 - - 10 - - - -
28/04:00am 24.2 ESE 6 12 1015.6 - 0.0 - - 10 - - - -
28/03:30am 24.0 ESE 6 12 1015.4 - 0.0 - - 10 - - - -
28/03:00am 24.1 SE 7 12 1015.1 - 0.0 - - 10 - - - -
28/02:30am 24.1 SE 6 12 1015.0 - 0.0 - - 10 - - - -
28/02:00am 24.1 SE 7 13 1014.9 - 0.0 - - 10 - - - -
28/01:30am 23.8 SE 6 13 1015.0 - 0.0 - - 10 - - - -
28/01:00am 23.1 SE 4 8 1015.1 - 0.0 - - 10 - - - -
28/12:30am 23.1 SE 4 7 1015.2 - 0.0 - - 10 - - - -
28/12:00am 22.4 SSE 4 6 1015.4 - 0.0 - - 10 - - - -
 
Date/Time
WST
Temp
°C
Wind Pressure Rain since
9am
mm
Weather Cloud Vis
km
Sea
Height
m
Swell
Dir  Spd
kts
Gust
kts
hPa Trend Height
m
Period
s
Dir
27/11:30pm 21.1 S 2 5 1015.5 - 0.0 - - 10 - - - -
27/11:00pm 22.0 SSW 2 4 1015.7 - 0.0 - - 10 - - - -
27/10:30pm 22.3 SSW 3 7 1015.8 - 0.0 - - 10 - - - -
27/10:00pm 22.4 SSW 3 5 1015.9 - 0.0 - Partly cloudy 10 - - - -
27/09:53pm 22.5 SSW 3 5 1015.9 - 0.0 - Partly cloudy 10 - - - -
27/09:34pm 22.0 SSW 3 5 1015.8 - 0.0 - Partly cloudy 4 - - - -
27/09:30pm 22.0 SSW 2 4 1015.7 - 0.0 - - 9 - - - -
27/09:26pm 21.9 SW 1 3 1015.7 - 0.0 - - 10 - - - -
27/09:14pm 22.0 W 1 3 1015.6 - 0.0 - - 5 - - - -
27/09:00pm 22.5 WNW 1 2 1015.6 - 0.0 - - 10 - - - -
27/08:30pm 23.2 WNW 1 3 1015.4 - 0.0 - - 10 - - - -
27/08:00pm 23.8 CALM 0 1 1015.2 - 0.0 - - 10 - - - -
27/07:30pm 23.8 NW 1 3 1014.8 - 0.0 - - 10 - - - -
27/07:00pm 24.3 NW 1 2 1014.5 - 0.0 - - 10 - - - -
27/06:30pm 25.0 NW 2 3 1014.2 - 0.0 - - 10 - - - -
27/06:00pm 25.7 WNW 1 4 1013.8 - 0.0 - - 10 - - - -
27/05:30pm 27.0 WNW 2 3 1013.7 - 0.0 - - 10 - - - -
27/05:00pm 28.8 SSE 1 4 1013.5 - 0.0 - - 10 - - - -
27/04:30pm 30.0 ESE 3 6 1013.3 - 0.0 - - 10 - - - -
27/04:00pm 30.3 E 4 7 1013.0 - 0.0 - - 10 - - - -
27/03:30pm 30.2 ENE 5 8 1012.8 - 0.0 - - 10 - - - -
27/03:00pm 30.5 ENE 6 12 1012.8 - 0.0 - - 10 - - - -
27/02:30pm 29.6 ENE 7 12 1012.9 - 0.0 - - 10 - - - -
27/02:00pm 30.4 E 7 12 1013.1 - 0.0 - - 10 - - - -
27/01:30pm 30.4 E 6 12 1013.2 - 0.0 - - 10 - - - -
27/01:00pm 30.4 ENE 5 10 1013.4 - 0.0 - - 10 - - - -
27/12:30pm 29.2 ENE 5 11 1013.7 - 0.0 - - 10 - - - -
27/12:00pm 29.4 ENE 6 10 1014.2 - 0.0 - - 10 - - - -
27/11:30am 28.1 ESE 7 11 1014.6 - 0.0 - - 10 - - - -
27/11:00am 28.0 ESE 7 12 1014.9 - 0.0 - - 10 - - - -
27/10:30am 27.2 ESE 7 13 1015.0 - 0.0 - - 10 - - - -
27/10:00am 26.3 ESE 8 14 1015.2 - 0.0 - - 10 - - - -
27/09:30am 26.0 ESE 9 16 1015.2 - 0.0 - - 10 - - - -
27/09:00am 25.9 ESE 9 17 1015.2 - 0.0 - - 10 - - - -
27/08:30am 25.5 ESE 9 18 1015.2 - 0.0 - - 10 - - - -
27/08:00am 25.0 ESE 9 16 1014.8 - 0.0 - - 10 - - - -
27/07:30am 23.3 ESE 7 10 1014.6 - 0.0 - - 10 - - - -
27/07:00am 21.9 SE 7 11 1014.3 - 0.0 - - 10 - - - -
27/06:30am 21.6 SE 6 12 1014.0 - 0.0 - - 10 - - - -
27/06:00am 21.6 SE 6 10 1013.8 - 0.0 - - 10 - - - -
27/05:30am 22.0 SE 5 10 1013.4 - 0.0 - - 10 - - - -
27/05:00am 22.3 SE 5 8 1013.2 - 0.0 - - 10 - - - -
27/04:30am 22.1 SE 4 8 1013.0 - 0.0 - - 10 - - - -
27/04:00am 22.3 SE 4 6 1012.9 - 0.0 - - 10 - - - -
27/03:30am 22.6 SE 5 7 1012.8 - 0.0 - - 10 - - - -
27/03:00am 23.3 SE 5 10 1012.7 - 0.0 - - 10 - - - -
27/02:30am 23.8 SE 5 9 1012.5 - 0.0 - - 10 - - - -
27/02:00am 24.1 SSE 5 9 1012.7 - 0.0 - - 10 - - - -
27/01:30am 24.6 SSE 6 11 1012.8 - 0.0 - - 10 - - - -
27/01:00am 24.5 S 6 10 1012.9 - 0.0 - - 10 - - - -
27/12:30am 22.7 S 4 8 1013.1 - 0.0 - - 10 - - - -
27/12:00am 22.8 SSW 3 6 1013.3 - 0.0 - - 10 - - - -
 
Date/Time
WST
Temp
°C
Wind Pressure Rain since
9am
mm
Weather Cloud Vis
km
Sea
Height
m
Swell
Dir  Spd
kts
Gust
kts
hPa Trend Height
m
Period
s
Dir
26/11:30pm 21.4 SSW 3 6 1013.5 - 0.0 - - 10 - - - -
26/11:00pm 21.3 SW 3 5 1013.6 - 0.0 - - 10 - - - -
26/10:30pm 21.4 SW 3 4 1013.6 - 0.0 - - 10 - - - -
26/10:00pm 20.9 SW 3 4 1013.7 - 0.0 - - 10 - - - -
26/09:30pm 22.0 WSW 3 4 1013.7 - 0.0 - - 10 - - - -
26/09:00pm 22.6 WSW 3 5 1013.7 - 0.0 - - 10 - - - -
26/08:30pm 22.6 WSW 3 4 1013.8 - 0.0 - - 10 - - - -
26/08:00pm 22.6 SW 2 4 1013.7 - 0.0 - - 10 - - - -
26/07:30pm 22.9 SW 2 4 1013.5 - 0.0 - - 10 - - - -
26/07:00pm 23.8 SW 3 5 1013.2 - 0.0 - - 10 - - - -
26/06:30pm 24.1 S 2 3 1013.0 - 0.0 - - 10 - - - -
26/06:00pm 25.3 CALM 0 3 1012.7 - 0.0 - - 10 - - - -
26/05:30pm 28.2 E 3 4 1012.1 - 0.0 - - 10 - - - -
26/05:00pm 29.6 E 3 6 1012.0 - 0.0 - - 10 - - - -
26/04:30pm 30.1 E 5 7 1011.8 - 0.0 - - 10 - - - -
26/04:00pm 30.6 ESE 5 8 1011.5 - 0.0 - - 10 - - - -
26/03:30pm 30.5 ESE 5 9 1011.2 - 0.0 - - 10 - - - -
26/03:00pm 30.4 SE 6 10 1011.4 - 0.0 - - 10 - - - -
26/02:30pm 30.2 ESE 8 14 1011.3 - 0.0 - - 10 - - - -
26/02:00pm 29.7 ESE 9 15 1011.7 - 0.0 - - 10 - - - -
26/01:30pm 29.4 ESE 9 15 1012.0 - 0.0 - - 10 - - - -
26/01:00pm 30.0 ESE 9 15 1012.3 - 0.0 - - 10 - - - -
26/12:30pm 29.0 SE 11 17 1012.7 - 0.0 - - 10 - - - -
26/12:00pm 28.6 ESE 9 16 1012.9 - 0.0 - - 10 - - - -
26/11:30am 28.4 ESE 10 17 1013.2 - 0.0 - - 10 - - - -
26/11:00am 28.1 SE 12 20 1013.7 - 0.0 - - 10 - - - -
26/10:30am 27.9 SE 11 20 1014.1 - 0.0 - - 10 - - - -
26/10:00am 27.6 SE 11 22 1014.4 - 0.0 - - 10 - - - -
26/09:30am 27.2 ESE 12 19 1014.8 - 0.0 - - 10 - - - -
26/09:00am 26.7 SE 10 18 1014.9 - 0.0 - - 10 - - - -
26/08:30am 25.8 SE 9 18 1014.8 - 0.0 - - 10 - - - -
26/08:00am 24.9 SE 10 18 1014.6 - 0.0 - - 10 - - - -
26/07:30am 23.9 SE 8 14 1014.4 - 0.0 - - 10 - - - -
26/07:00am 23.2 SE 8 15 1014.3 - 0.0 - - 10 - - - -
26/06:30am 22.8 SE 8 12 1013.9 - 0.0 - - 10 - - - -
26/06:00am 22.9 SE 7 11 1013.6 - 0.0 - - 10 - - - -
26/05:30am 23.2 SE 8 12 1013.4 - 0.0 - - 10 - - - -
26/05:00am 23.4 SE 7 13 1013.1 - 0.0 - - 10 - - - -
26/04:30am 23.5 SE 7 13 1013.0 - 0.0 - - 10 - - - -
26/04:00am 23.7 SE 7 13 1012.9 - 0.0 - - 10 - - - -
26/03:30am 23.9 SE 6 12 1012.8 - 0.0 - - 10 - - - -
26/03:00am 24.3 SE 7 12 1012.7 - 0.0 - - 10 - - - -
26/02:30am 24.8 SSE 7 13 1012.9 - 0.0 - - 10 - - - -
26/02:00am 25.0 SE 7 14 1013.0 - 0.0 - - 10 - - - -
26/01:30am 24.9 SE 6 10 1013.2 - 0.0 - - 10 - - - -
26/01:00am 24.5 SSE 6 12 1013.3 - 0.0 - - 10 - - - -
26/12:30am 24.8 SSE 5 11 1013.6 - 0.0 - - 10 - - - -
26/12:00am 22.8 S 3 6 1013.6 - 0.0 - - 10 - - - -
 
Date/Time
WST
Temp
°C
Wind Pressure Rain since
9am
mm
Weather Cloud Vis
km
Sea
Height
m
Swell
Dir  Spd
kts
Gust
kts
hPa Trend Height
m
Period
s
Dir
25/11:30pm 20.6 SSW 3 4 1013.8 - 0.0 - - 10 - - - -
25/11:00pm 20.7 SSW 2 3 1013.7 - 0.0 - - 10 - - - -
25/10:30pm 21.4 W 1 2 1013.8 - 0.0 - - 10 - - - -
25/10:00pm 22.7 W 2 4 1013.8 - 0.0 - - 10 - - - -
25/09:30pm 23.1 WNW 3 4 1013.8 - 0.0 - - 10 - - - -
25/09:00pm 23.3 SSW 4 6 1013.8 - 0.0 - - 10 - - - -
25/08:30pm 23.3 SSW 4 6 1013.6 - 0.0 - - 10 - - - -
25/08:00pm 23.0 SSW 3 5 1013.5 - 0.0 - - 10 - - - -
25/07:30pm 23.4 SSW 3 5 1013.3 - 0.0 - - 10 - - - -
25/07:00pm 23.2 SSE 2 3 1013.0 - 0.0 - - 10 - - - -
25/06:30pm 24.2 SSW 1 2 1012.6 - 0.0 - - 10 - - - -
25/06:00pm 25.3 CALM 0 1 1012.4 - 0.0 - - 10 - - - -
25/05:30pm 28.1 ESE 1 3 1011.9 - 0.0 - - 10 - - - -
25/05:00pm 29.7 ESE 3 5 1011.6 - 0.0 - - 10 - - - -
25/04:30pm 30.0 ESE 4 7 1011.2 - 0.0 - - 10 - - - -
25/04:00pm 30.5 ESE 5 8 1011.2 - 0.0 - - 10 - - - -
25/03:30pm 30.3 ESE 5 8 1011.0 - 0.0 - - 10 - - - -
25/03:00pm 30.2 ESE 6 11 1011.0 - 0.0 - - 10 - - - -

Other Formats:

Comma delimited format used in spreadsheet applications
http://www.bom.gov.au/fwo/IDW60701/IDW60701.99206.axf

JavaScript Object Notation format (JSON) in row-major order
http://www.bom.gov.au/fwo/IDW60701/IDW60701.99206.json